Dassault Systemes SA EBITDA Margin 2006-2021 | DASTY

Current and historical EBITDA (Earnings Before Interest, Taxes, Depreciation and Amortization) margin for Dassault Systemes SA (DASTY) over the last 10 years. The current EBITDA margin for Dassault Systemes SA as of March 31, 2021 is .
Dassault Systemes SA EBITDA Margin Historical Data
Date TTM Revenue TTM EBITDA EBITDA Margin
2021-03-31 $5.25B $1.56B 29.62%
2020-12-31 $5.09B $1.46B 28.62%
2020-09-30 $4.95B $1.36B 27.54%
2020-06-30 $4.76B $1.34B 28.18%
2020-03-31 $4.66B $1.36B 29.14%
2019-12-31 $4.50B $1.35B 30.09%
2019-09-30 $4.39B $1.28B 29.24%
2019-06-30 $4.33B $1.24B 28.69%
2019-03-31 $4.25B $1.22B 28.73%
2018-12-31 $4.11B $1.11B 27.05%
2018-09-30 $3.98B $1.16B 29.08%
2018-06-30 $3.90B $1.15B 29.43%
2018-03-31 $3.79B $1.11B 29.43%
2017-12-31 $3.65B $1.07B 29.32%
2017-09-30 $3.53B $1.00B 28.25%
2017-06-30 $3.46B $0.92B 26.45%
2017-03-31 $3.43B $0.85B 24.85%
2016-12-31 $3.38B $0.86B 25.38%
2016-09-30 $3.25B $0.73B 22.48%
2016-06-30 $3.18B $0.78B 24.47%
2016-03-31 $3.12B $0.83B 26.45%
2015-12-31 $3.15B $0.88B 27.90%
2015-09-30 $3.11B $0.87B 27.88%
2015-06-30 $3.07B $0.80B 25.96%
2015-03-31 $3.03B $0.77B 25.23%
2014-12-31 $2.93B $0.69B 23.39%
2014-09-30 $2.92B $0.79B 26.98%
2014-06-30 $2.89B $0.86B 29.70%
2014-03-31 $2.83B $0.87B 30.82%
2013-12-31 $2.77B $0.88B 31.73%
2013-09-30 $2.77B $0.89B 32.32%
2013-06-30 $2.73B $0.87B 31.89%
2013-03-31 $2.65B $0.83B 31.16%
2012-12-31 $2.63B $0.84B 31.77%
2012-09-30 $2.55B $0.64B 25.07%
2012-06-30 $2.50B $0.61B 24.57%
2012-03-31 $2.51B $0.63B 25.00%
2011-12-31 $2.46B $0.61B 24.74%
2011-09-30 $2.41B $0.74B 30.53%
2011-06-30 $2.33B $0.69B 29.55%
2011-03-31 $2.21B $0.64B 29.00%
2010-12-31 $2.07B $0.55B 26.68%
2010-09-30 $1.94B $0.47B 24.20%
2010-06-30 $1.85B $0.43B 23.32%
2010-03-31 $1.79B $0.40B 22.34%
2009-12-31 $1.78B $0.41B 22.81%
2009-09-30 $1.78B $0.41B 22.93%
2009-06-30 $1.82B $0.38B 21.06%
2009-03-31 $1.89B $0.41B 21.59%
2008-12-31 $1.95B $0.44B 22.42%
2008-09-30 $1.97B $0.56B 28.33%
2008-06-30 $1.91B $0.55B 28.84%
2008-03-31 $1.81B $0.50B 27.64%
2007-12-31 $1.73B $0.45B 26.18%
2007-09-30 $1.66B $0.42B 25.20%
2007-06-30 $1.60B $0.41B 25.67%
2007-03-31 $1.54B $0.40B 25.89%
2006-12-31 $1.46B $0.40B 27.07%
2006-09-30 $1.31B $0.60B 45.88%
2006-06-30 $1.22B $0.23B 18.69%
2006-03-31 $1.14B $0.24B 21.37%
2005-12-31 $1.10B $0.25B 22.64%
Sector Industry Market Cap Revenue
Computer and Technology Computer Software $73.009B $5.085B
Dassault Systemes is a worldwide recognized leader in CAD/CAM/CAE and PDM II markets. The company's mission to provide solutions to enable customersto build their digital enterprise, by defining, simulating, managing and optimizing concurrently product, manufacturing process, and resources. In this virtual space, customers create innovative, high quality, safe and affordable products. The company delivers scaleable process and design-centric solutions on both Unix and Windows NT environments.
Stock Name Country Market Cap PE Ratio
Microsoft (MSFT) United States $2155.687B 35.91
Adobe (ADBE) United States $295.806B 63.75
Oracle (ORCL) United States $243.407B 20.86
Salesforce, Inc (CRM) United States $225.907B 69.90
SAP SE (SAP) Germany $175.639B 22.34
Intuit (INTU) United States $142.942B 68.11
Autodesk (ADSK) United States $68.893B 118.61
VMware (VMW) United States $65.148B 30.31
Synopsys (SNPS) United States $43.284B 55.08
Cadence Design Systems (CDNS) United States $40.020B 56.04
ANSYS (ANSS) United States $31.604B 64.99
SS&C Technologies Holdings (SSNC) United States $19.183B 17.16
PTC (PTC) United States $16.973B 59.53
Nuance Communications (NUAN) United States $15.734B 144.74
Citrix Systems (CTXS) United States $14.223B 31.13
Open Text (OTEX) Canada $14.060B 15.93
Pegasystems (PEGA) United States $11.125B 0.00
Manhattan Associates (MANH) United States $9.938B 105.55
Aspen Technology (AZPN) United States $9.882B 43.24
Trend Micro (TMICY) Japan $7.529B 29.40
MicroStrategy (MSTR) United States $6.302B 127.80
Descartes Systems Group (DSGX) Canada $6.046B 105.07
ACI Worldwide (ACIW) United States $4.065B 22.06
Blackbaud (BLKB) United States $3.496B 52.28
CommVault Systems (CVLT) United States $3.493B 90.24
Cornerstone OnDemand (CSOD) United States $3.188B 21.40
Verint Systems (VRNT) United States $2.775B 16.61
Progress Software (PRGS) United States $2.019B 15.59
PROS Holdings (PRO) United States $1.935B 0.00
Bottomline Technologies (EPAY) United States $1.813B 142.64
QAD (QADB) United States $1.783B 141.15
Avid Technology (AVID) United States $1.648B 46.74
Sapiens (SPNS) Israel $1.366B 24.99
Canaan (CAN) China $1.118B 0.00
Simulations Plus (SLP) United States $0.950B 82.79
OptimizeRx (OPRX) United States $0.946B 2709.00
Magic Software Enterprises (MGIC) Israel $0.851B 22.26
American Software (AMSWA) United States $0.716B 84.23
Icad Inc (ICAD) United States $0.378B 0.00
Smith Micro Software (SMSI) United States $0.304B 71.00
ServiceSource (SREV) United States $0.146B 0.00
Park City (PCYG) United States $0.111B 51.82
Neonode (NEON) Sweden $0.065B 0.00
NetSol Technologies (NTWK) United States $0.050B 20.23
BSQUARE (BSQR) United States $0.039B 0.00
GSE Systems (GVP) United States $0.029B 0.00